Terug naar catalogus

SL-14 DEB

ActiefPO
NORAD 45315·DEBRIS·🇷🇺 Russia

Gelanceerd Aug 15, 1991 vanaf Plesetsk Cosmodrome

Loading…

Volgende Passages (komende 24 uur)

TLE

VersSource: Space-Track

Epoch: Sep 14, 2026, 11:47 UTC

1 45315U 91056BD  26257.49163488  .00000241  00000-0  60611-3 0  9998
2 45315  82.5559  84.1739 0028252 332.0645  27.8959 13.15600646314356

Volg SL-14 DEB in realtime met AllMySat

Download on the App Store